GW4085 Weather Reports


time (UTC)temp
C
wind
direction
speed
KPH
gust
KPH
rain 1hr
cm
rain 24hr
cm
rain mn
cm
humidity
%
barometer
mb
20260505140409 13 166 1.6 3.2 0.00 0.38 0.38 87 1007.9
20260505124823 13 43 3.2 4.8 0.00 0.38 0.38 90 1007.3
20260505124320 14 139 1.6 1.6 0.00 0.38 0.38 91 1007.5
20260505123816 14 10 4.8 4.8 0.00 0.38 0.38 92 1007.0
20260505123313 13 182 0.0 8.0 0.00 0.38 0.38 93 1007.3
20260505122809 13 330 3.2 4.8 0.00 0.38 0.38 93 1006.9
20260505122306 13 12 3.2 4.8 0.00 0.38 0.38 94 1007.0
20260505121802 13 4 1.6 8.0 0.00 0.38 0.38 95 1006.8
20260505121259 14 138 1.6 1.6 0.00 0.38 0.38 95 1006.6
20260505120755 13 351 3.2 3.2 0.00 0.38 0.38 95 1006.1
20260505120252 13 348 4.8 4.8 0.00 0.38 0.38 94 1006.3
20260505115750 13 347 3.2 8.0 0.00 0.38 0.38 94 1006.8
20260505115248 13 93 1.6 4.8 0.00 0.38 0.38 94 1006.6
20260505114745 13 21 0.0 0.0 0.00 0.38 0.38 95 1006.6
20260505114241 13 24 0.0 0.0 0.00 0.38 0.38 95 1006.5
20260505113738 14 25 0.0 0.0 0.00 0.38 0.38 96 1006.5
20260505113235 14 52 0.0 1.6 0.00 0.38 0.38 96 1006.9
20260505112731 14 58 0.0 0.0 0.00 0.38 0.38 96 1006.8
20260505112229 15 306 0.0 0.0 0.00 0.38 0.38 96 1006.1
20260505111728 15 347 0.0 0.0 0.13 0.38 0.38 96 1006.1
20260505111225 15 42 0.0 4.8 0.13 0.38 0.38 96 1006.2
20260505110720 15 173 0.0 0.0 0.00 0.36 0.36 97 1005.8
20260505110218 15 334 0.0 3.2 0.00 0.36 0.36 97 1005.7
20260505102154 15 161 0.0 1.6 0.00 0.33 0.33 95 1006.2
20260505101652 15 168 0.0 3.2 0.18 0.33 0.33 94 1006.0
20260505101148 15 112 1.6 3.2 0.18 0.33 0.33 94 1006.2
20260505100644 15 53 1.6 8.0 0.00 0.30 0.30 93 1006.1
20260505100142 15 138 3.2 8.0 0.00 0.30 0.30 92 1006.3
20260505095637 15 61 4.8 4.8 0.00 0.30 0.30 92 1006.0
20260505095135 15 178 0.0 1.6 0.00 0.30 0.30 91 1005.6
20260505094631 15 187 0.0 1.6 0.00 0.30 0.30 90 1005.1
20260505094127 16 162 0.0 3.2 0.00 0.30 0.30 89 1005.4
20260505093624 16 186 3.2 8.0 0.13 0.30 0.30 88 1005.2
20260505093121 16 181 8.0 11.3 0.13 0.30 0.30 87 1005.1
20260505092618 16 199 4.8 8.0 0.00 0.28 0.28 85 1004.9
20260505092117 16 189 4.8 11.3 0.00 0.28 0.28 83 1004.8
20260505091613 16 160 6.4 9.7 0.00 0.28 0.28 84 1004.7
20260505091111 15 175 3.2 9.7 0.00 0.28 0.28 88 1004.6
20260505090609 16 163 1.6 11.3 0.00 0.28 0.28 88 1004.5
20260505090107 15 203 6.4 14.5 0.00 0.28 0.28 90 1003.8
20260505085604 15 177 8.0 14.5 0.00 0.28 0.28 92 1003.2
20260505085102 15 193 4.8 22.5 0.00 0.28 0.28 95 1003.6
20260505084600 15 177 11.3 14.5 0.18 0.28 0.28 97 1003.6
20260505084058 15 199 4.8 11.3 0.13 0.25 0.25 97 1004.4
20260505083555 15 193 11.3 22.5 0.13 0.25 0.25 96 1005.1
20260505083051 15 176 9.7 16.1 0.18 0.23 0.23 96 1005.7
20260505082547 15 181 6.4 8.0 0.18 0.23 0.23 96 1006.1
20260505082044 16 171 4.8 8.0 0.13 0.20 0.20 96 1006.0
20260505081540 16 165 4.8 8.0 0.18 0.18 0.18 96 1006.2
20260505081038 16 265 6.4 14.5 0.18 0.18 0.18 96 1005.8
20260505080534 16 175 3.2 8.0 0.13 0.15 0.15 96 1006.0
20260505080031 16 320 4.8 12.9 0.30 0.15 0.15 95 1006.1
20260505075527 16 199 4.8 16.1 0.18 0.13 0.13 95 1005.9
20260505075024 16 182 4.8 25.7 0.13 0.10 0.10 94 1005.9
20260505074521 16 255 4.8 20.9 0.18 0.08 0.08 92 1005.7
20260505074018 16 190 9.7 12.9 0.18 0.08 0.08 91 1005.8
20260505073515 16 183 9.7 16.1 0.13 0.05 0.05 89 1005.8
20260505073014 17 176 11.3 17.7 0.13 0.05 0.05 88 1006.0
20260505072509 17 207 3.2 8.0 0.18 0.03 0.03 85 1005.8
20260505072005 17 113 8.0 12.9 0.00 0.00 0.00 84 1005.6
20260505071501 17 185 16.1 20.9 0.00 0.00 0.00 80 1005.9
20260505070959 17 193 9.7 16.1 0.00 0.00 0.00 80 1006.0
20260505070456 18 170 4.8 9.7 0.00 0.00 0.00 78 1005.9
20260505065951 18 199 8.0 11.3 0.00 0.00 0.00 78 1005.6
20260505065448 17 187 1.6 4.8 0.00 0.00 0.00 78 1005.7
20260505064945 18 184 1.6 9.7 0.00 0.00 0.00 78 1005.6
20260505064442 18 183 1.6 4.8 0.00 0.00 0.00 77 1005.3
20260505063940 18 191 4.8 11.3 0.00 0.00 0.00 77 1005.7
20260505063436 18 189 1.6 3.2 0.00 0.00 0.00 77 1005.9
20260505062933 18 163 1.6 4.8 0.00 0.00 0.00 78 1005.7
20260505062430 17 189 6.4 8.0 0.00 0.00 0.00 78 1006.0
20260505061926 17 191 3.2 4.8 0.00 0.00 0.00 78 1006.1
20260505061425 17 187 6.4 8.0 0.00 0.00 0.00 78 1005.9
20260505060922 17 186 4.8 8.0 0.00 0.00 0.00 77 1006.2
20260505060419 17 166 1.6 4.8 0.00 0.00 0.00 77 1006.1
20260505055915 17 178 0.0 3.2 0.00 0.00 0.00 78 1006.0
20260505055412 17 187 3.2 8.0 0.00 0.00 0.00 77 1005.8
20260505054908 17 180 6.4 12.9 0.00 0.00 0.00 77 1005.9
20260505054406 17 174 0.0 9.7 0.00 0.00 0.00 77 1005.9
20260505053904 17 187 1.6 3.2 0.00 0.00 0.00 77 1006.0
20260505053401 17 175 0.0 8.0 0.00 0.00 0.00 77 1006.2
20260505052857 17 168 1.6 4.8 0.00 0.00 0.00 76 1006.1
20260505052354 17 194 1.6 3.2 0.00 0.00 0.00 77 1006.2
20260505051851 17 152 0.0 8.0 0.00 0.00 0.00 77 1006.0
20260505051348 18 139 3.2 8.0 0.00 0.00 0.00 76 1005.9
20260505050847 18 177 1.6 11.3 0.00 0.00 0.00 76 1006.1
20260505050345 18 189 6.4 8.0 0.00 0.00 0.00 76 1006.2
20260505041312 18 169 3.2 3.2 0.00 0.00 0.00 75 1006.7
20260505040809 18 182 1.6 3.2 0.00 0.00 0.00 74 1006.7
20260505040307 18 191 1.6 1.6 0.00 0.00 0.00 73 1006.9
20260505035803 18 181 1.6 3.2 0.00 0.00 0.00 73 1007.2
20260505035259 18 161 4.8 8.0 0.00 0.00 0.00 72 1007.0
20260505034756 18 191 4.8 4.8 0.00 0.00 0.00 72 1007.2
20260505034253 19 182 3.2 4.8 0.00 0.00 0.00 72 1007.2
20260505033749 19 183 1.6 3.2 0.00 0.00 0.00 72 1007.5
20260505033247 19 156 1.6 8.0 0.00 0.00 0.00 71 1007.2
20260505032745 19 191 4.8 4.8 0.00 0.00 0.00 71 1007.4
20260505032241 19 174 3.2 8.0 0.00 0.00 0.00 71 1007.1
20260505031739 19 170 0.0 3.2 0.00 0.00 0.00 71 1007.2
20260505031235 20 160 1.6 4.8 0.00 0.00 0.00 71 1007.2
20260505030732 20 178 3.2 9.7 0.00 0.00 0.00 71 1007.1
20260505030228 20 184 3.2 4.8 0.00 0.00 0.00 71 1007.3
20260505025724 20 187 3.2 9.7 0.00 0.00 0.00 71 1007.2
20260505025222 20 185 1.6 8.0 0.00 0.00 0.00 71 1007.2
20260505024720 20 182 6.4 8.0 0.00 0.00 0.00 71 1007.1
20260505024217 20 179 6.4 9.7 0.00 0.00 0.00 71 1007.0
20260505023714 20 177 1.6 4.8 0.00 0.00 0.00 71 1006.9
20260505023211 20 170 1.6 4.8 0.00 0.00 0.00 71 1006.9
20260505022709 20 180 4.8 8.0 0.00 0.00 0.00 70 1006.9
20260505022205 20 197 3.2 8.0 0.00 0.00 0.00 71 1006.8
20260505021702 20 206 1.6 4.8 0.00 0.00 0.00 70 1006.7
20260505021159 20 179 1.6 1.6 0.00 0.00 0.00 70 1006.6
20260505020655 20 181 0.0 3.2 0.00 0.00 0.00 69 1006.7
20260505020151 20 167 1.6 3.2 0.00 0.00 0.00 69 1006.5
20260505015648 20 180 1.6 1.6 0.00 0.00 0.00 69 1006.5
20260505015144 20 188 1.6 3.2 0.00 0.00 0.00 68 1006.5
20260505014641 20 187 1.6 3.2 0.00 0.00 0.00 67 1006.6
20260505014138 20 185 0.0 0.0 0.00 0.00 0.00 67 1006.3
20260505013636 20 187 0.0 0.0 0.00 0.00 0.00 66 1006.2
20260505013133 20 189 1.6 1.6 0.00 0.00 0.00 66 1006.0
20260505012631 21 179 0.0 0.0 0.00 0.00 0.00 66 1006.0
20260505012128 21 171 0.0 1.6 0.00 0.00 0.00 65 1005.8
20260505011623 21 199 0.0 1.6 0.00 0.00 0.00 64 1005.9
20260505011121 21 183 0.0 1.6 0.00 0.00 0.00 63 1006.0
20260505010616 21 179 0.0 1.6 0.00 0.00 0.00 63 1005.7
20260505010113 21 170 1.6 3.2 0.00 0.00 0.00 63 1005.8
20260505005609 21 175 0.0 3.2 0.00 0.00 0.00 62 1005.7
20260505005107 21 192 0.0 1.6 0.00 0.00 0.00 62 1005.7
20260505004604 22 177 0.0 1.6 0.00 0.00 0.00 62 1005.6
20260505004100 22 182 1.6 3.2 0.00 0.00 0.00 60 1005.6
20260505003557 22 188 1.6 3.2 0.00 0.00 0.00 60 1005.7
20260505003055 22 173 1.6 4.8 0.00 0.00 0.00 59 1005.7
20260505002549 22 210 3.2 4.8 0.00 0.00 0.00 59 1005.6
20260505002043 22 169 3.2 3.2 0.00 0.00 0.00 58 1005.7
20260505001539 22 164 4.8 8.0 0.00 0.00 0.00 57 1005.2
20260505001037 23 194 4.8 9.7 0.00 0.00 0.00 56 1005.5
20260505000534 23 177 9.7 11.3 0.00 0.00 0.00 56 1005.4
20260505000032 23 153 4.8 8.0 0.00 0.00 0.00 57 1005.4
20260504235528 23 197 4.8 11.3 0.00 0.00 0.00 56 1005.6
20260504235025 23 218 4.8 11.3 0.00 0.00 0.00 56 1005.4
20260504234522 23 216 6.4 11.3 0.00 0.00 0.00 55 1005.5
20260504234019 24 175 4.8 9.7 0.00 0.00 0.00 55 1005.3
20260504233514 24 174 4.8 11.3 0.00 0.00 0.00 53 1005.1
20260504233011 25 178 4.8 12.9 0.00 0.00 0.00 54 1005.4
20260504232508 25 195 4.8 8.0 0.00 0.00 0.00 53 1005.4
20260504232006 25 207 9.7 20.9 0.00 0.00 0.00 52 1005.3
20260504231502 25 190 8.0 14.5 0.00 0.00 0.00 52 1005.4
20260504230958 25 199 3.2 9.7 0.00 0.00 0.00 53 1005.2
20260504230455 25 205 4.8 8.0 0.00 0.00 0.00 52 1005.2
20260504225954 25 194 4.8 17.7 0.00 0.00 0.00 52 1005.2
20260504225450 25 217 4.8 20.9 0.00 0.00 0.00 52 1005.3
20260504224947 25 199 6.4 8.0 0.00 0.00 0.00 52 1005.5
20260504224444 25 165 8.0 14.5 0.00 0.00 0.00 51 1005.4
20260504223941 26 177 4.8 14.5 0.00 0.00 0.00 51 1005.5
20260504223437 26 190 11.3 20.9 0.00 0.00 0.00 52 1005.4
20260504222933 26 183 12.9 24.1 0.00 0.00 0.00 51 1005.5
20260504222431 26 180 6.4 14.5 0.00 0.00 0.00 51 1005.4
20260504221928 26 139 14.5 24.1 0.00 0.00 0.00 50 1005.5
20260504221425 26 146 4.8 17.7 0.00 0.00 0.00 52 1005.4
20260504220922 26 205 4.8 22.5 0.00 0.00 0.00 52 1005.5
20260504220418 26 169 4.8 9.7 0.00 0.00 0.00 51 1005.5
20260504215916 26 175 4.8 20.9 0.00 0.00 0.00 51 1005.4
20260504215412 26 189 11.3 17.7 0.00 0.00 0.00 52 1005.4
20260504214908 26 182 8.0 12.9 0.00 0.00 0.00 53 1005.6
20260504214405 26 173 9.7 14.5 0.00 0.00 0.00 52 1005.7
20260504213902 26 194 8.0 16.1 0.00 0.00 0.00 52 1005.5
20260504213358 26 215 6.4 11.3 0.00 0.00 0.00 52 1005.6
20260504212856 26 169 11.3 12.9 0.00 0.00 0.00 52 1005.6
20260504212352 25 191 9.7 22.5 0.00 0.00 0.00 53 1005.9
20260504211850 25 136 4.8 29.0 0.00 0.00 0.00 52 1005.8
20260504211345 26 200 8.0 17.7 0.00 0.00 0.00 52 1005.6
20260504210843 26 156 11.3 16.1 0.00 0.00 0.00 51 1005.9
20260504210340 25 157 8.0 17.7 0.00 0.00 0.00 53 1005.7
20260504205837 25 187 8.0 20.9 0.00 0.00 0.00 51 1005.9
20260504205334 26 191 9.7 16.1 0.00 0.00 0.00 51 1006.1
20260504204832 26 22 6.4 16.1 0.00 0.00 0.00 53 1005.8
20260504204331 26 188 8.0 16.1 0.00 0.00 0.00 52 1006.1
20260504203830 26 302 8.0 24.1 0.00 0.00 0.00 50 1006.1
20260504203326 26 184 3.2 20.9 0.00 0.00 0.00 52 1006.3
20260504202822 26 197 8.0 9.7 0.00 0.00 0.00 54 1006.3
20260504202320 26 161 9.7 22.5 0.00 0.00 0.00 51 1006.7
20260504201816 26 183 4.8 20.9 0.00 0.00 0.00 52 1006.6
20260504201313 26 203 14.5 22.5 0.00 0.00 0.00 51 1006.6
20260504200811 26 188 14.5 22.5 0.00 0.00 0.00 51 1006.6
20260504200307 26 181 9.7 17.7 0.00 0.00 0.00 50 1006.9
20260504195803 26 210 8.0 22.5 0.00 0.00 0.00 51 1006.9
20260504195259 26 177 9.7 14.5 0.00 0.00 0.00 51 1007.0
20260504194756 26 189 14.5 22.5 0.00 0.00 0.00 51 1007.0
20260504194252 26 189 3.2 11.3 0.00 0.00 0.00 52 1006.8
20260504193748 25 91 4.8 17.7 0.00 0.00 0.00 51 1007.0
20260504193246 26 225 11.3 14.5 0.00 0.00 0.00 52 1006.9
20260504192744 26 210 6.4 16.1 0.00 0.00 0.00 54 1006.9
20260504192242 25 181 12.9 20.9 0.00 0.00 0.00 52 1006.7
20260504191741 26 212 17.7 22.5 0.00 0.00 0.00 52 1007.0
20260504191237 25 190 8.0 14.5 0.00 0.00 0.00 54 1006.9
20260504190732 25 189 6.4 14.5 0.00 0.00 0.00 54 1007.0
20260504190229 25 214 8.0 24.1 0.00 0.00 0.00 54 1007.0
20260504185726 25 229 9.7 22.5 0.00 0.00 0.00 53 1007.1
20260504185223 25 172 14.5 22.5 0.00 0.00 0.00 53 1007.1
20260504184719 25 193 8.0 20.9 0.00 0.00 0.00 54 1007.3
20260504184215 25 203 9.7 17.7 0.00 0.00 0.00 56 1007.1
20260504183711 25 150 9.7 22.5 0.00 0.00 0.00 55 1007.0
20260504183209 25 167 11.3 20.9 0.00 0.00 0.00 53 1007.2
20260504182707 25 209 11.3 25.7 0.00 0.00 0.00 54 1007.2
20260504182203 26 155 4.8 11.3 0.00 0.00 0.00 54 1007.2
20260504181700 25 307 11.3 17.7 0.00 0.00 0.00 52 1007.1
20260504181158 25 159 4.8 11.3 0.00 0.00 0.00 54 1007.1
20260504180657 25 175 22.5 27.4 0.00 0.00 0.00 52 1007.3
20260504180155 25 177 12.9 17.7 0.00 0.00 0.00 53 1007.2
20260504175652 25 150 14.5 22.5 0.00 0.00 0.00 53 1007.2
20260504175148 25 154 9.7 22.5 0.00 0.00 0.00 55 1007.2
20260504174647 25 173 16.1 24.1 0.00 0.00 0.00 53 1007.4
20260504174143 25 207 12.9 22.5 0.00 0.00 0.00 53 1007.5
20260504173640 25 74 4.8 29.0 0.00 0.00 0.00 53 1007.6
20260504173138 25 171 6.4 16.1 0.00 0.00 0.00 53 1007.3
20260504172634 25 191 9.7 17.7 0.00 0.00 0.00 54 1007.5
20260504172131 23 169 12.9 20.9 0.00 0.00 0.00 54 1007.5
20260504171627 24 125 11.3 25.7 0.00 0.00 0.00 54 1007.8
20260504171124 24 199 8.0 12.9 0.00 0.00 0.00 56 1007.8
20260504170620 24 132 8.0 24.1 0.00 0.00 0.00 55 1007.8
20260504170118 24 200 19.3 27.4 0.00 0.00 0.00 53 1007.8
20260504151004 22 186 3.2 17.7 0.00 0.00 0.00 55 1008.5
20260504150501 22 197 16.1 17.7 0.00 0.00 0.00 54 1008.7